RYR1448 EGBB-GCRR

Flight info

Callsign RYR1448
Flight time N/A
Altitude 35000
Route BRUMI N92 ZESPE DCT PACSE DCT TONQU DCT SALCO DCT EBOMO DCT IBISU DCT ERWAN DCT BALDA DCT ABUPI DCT GAIOS DCT SGR DCT TAKAV DCT VEDOD UN857 TERTO
Aircraft B738/M-SDE3FGILRWY/SB1

Departure

Time 2026-05-06 08:06
Airport Birmingham Airport (EGBB)

Arrival

Time N/A
Airport César Manrique-Lanzarote Airport (GCRR)
Time Latitude Longitude Altitude Speed Heading
2026-05-06 07:52 52.45399 -1.73518 321 ft 0 kts 145°
2026-05-06 07:53 52.45399 -1.73519 322 ft 0 kts 145°
2026-05-06 07:58 52.45416 -1.73537 320 ft 3 kts 146°
2026-05-06 07:58 52.45434 -1.73557 320 ft 4 kts 155°
2026-05-06 07:58 52.45459 -1.73570 318 ft 4 kts 177°
2026-05-06 07:58 52.45483 -1.73563 319 ft 4 kts 224°
2026-05-06 07:59 52.45482 -1.73570 319 ft 4 kts 236°
2026-05-06 07:59 52.45476 -1.73583 319 ft 0 kts 236°
2026-05-06 08:01 52.45473 -1.73590 322 ft 2 kts 236°
2026-05-06 08:01 52.45466 -1.73608 321 ft 3 kts 236°
2026-05-06 08:01 52.45453 -1.73640 322 ft 4 kts 236°
2026-05-06 08:01 52.45429 -1.73697 322 ft 8 kts 236°
2026-05-06 08:02 52.45386 -1.73801 322 ft 14 kts 236°
2026-05-06 08:02 52.45325 -1.73948 322 ft 17 kts 234°
2026-05-06 08:02 52.45226 -1.73914 322 ft 16 kts 146°
2026-05-06 08:02 52.45135 -1.73812 321 ft 16 kts 145°
2026-05-06 08:03 52.45029 -1.73734 322 ft 18 kts 153°
2026-05-06 08:03 52.44917 -1.73644 322 ft 19 kts 182°
2026-05-06 08:03 52.44794 -1.73699 322 ft 18 kts 196°
2026-05-06 08:03 52.44678 -1.73689 320 ft 17 kts 150°
2026-05-06 08:04 52.44578 -1.73580 322 ft 18 kts 146°
2026-05-06 08:04 52.44471 -1.73461 322 ft 19 kts 145°
2026-05-06 08:04 52.44363 -1.73453 322 ft 18 kts 234°
2026-05-06 08:04 52.44312 -1.73569 322 ft 6 kts 234°
2026-05-06 08:05 52.44327 -1.73624 321 ft 6 kts 328°
2026-05-06 08:05 52.44433 -1.73742 324 ft 47 kts 326°
2026-05-06 08:05 52.44894 -1.74254 323 ft 113 kts 326°
2026-05-06 08:05 52.45705 -1.75155 371 ft 162 kts 327°
2026-05-06 08:06 52.46654 -1.76186 1091 ft 166 kts 330°
2026-05-06 08:06 52.47623 -1.77266 1835 ft 175 kts 329°